[[{"header":{"parameterUnit":"m.s-1","parameterCategory":1,"la1":30.2991,"la2":30.254,"lo1":-89.0895,"lo2":-89.0444,"dy":0.0017,"dx":0.0017,"nx":28,"ny":28,"refTime":"2024-10-09T09:00:00:Z","depth":0,"parameterNumber":2,"parameterNumberName":"U-component_of_WINDS"},"data":[0,0,0,0,0,0,0,0,0,0,0,0,0,0,0,0,0,0,0,0,0,0,0,0,0,0,0,0,0,0,0,0,0,0,0,0,0,0,0,0,0,0,0,0,0,0,0,0,0,0,0,0,0,0,0,0,0,0,-0.7009,-0.7009,0,-0.701,-0.701,-0.701,-0.6961,-0.696,-0.6958,-0.6957,-0.6961,-0.6962,-0.6963,0,0,0,0,0,0,0,0,0,0,0,0,0,-0.6968,-0.6969,-0.7009,-0.7009,-0.7009,-0.701,-0.701,-0.701,-0.6961,-0.696,-0.6958,-0.6957,-0.696,-0.6962,-0.6963,0,0,0,0,0,0,0,0,0,0,0,0,0,-0.6979,-0.697,-0.7009,-0.6985,-0.6983,-0.701,-0.701,-0.701,-0.6962,-0.696,-0.6958,-0.6956,-0.696,-0.6962,-0.6964,-0.7015,0,0,-0.697,-0.697,0,0,0,0,0,0,0,0,-0.6979,-0.6981,-0.6989,-0.6987,-0.6984,-0.6983,-0.6997,-0.7012,-0.6962,-0.697,-0.6957,-0.6955,-0.697,-0.6971,-0.6976,-0.7015,-0.7015,-0.697,-0.6971,-0.6972,-0.6972,0,0,0,0,0,0,0,-0.6978,-0.6981,-0.701,-0.6989,-0.6986,-0.6975,-0.6974,-0.6999,-0.6981,-0.6969,-0.6965,-0.6966,-0.6969,-0.6974,-0.6975,-0.7015,-0.697,-0.6971,-0.6973,-0.6973,-0.7097,-0.7099,0,0,0,0,0,0,-0.698,-0.698,-0.701,-0.701,-0.6977,-0.6977,-0.6977,-0.6986,-0.6981,-0.6978,-0.6968,-0.6964,-0.6971,-0.6973,-0.6975,-0.7036,-0.6972,-0.6974,-0.6975,-0.7095,-0.7098,-0.71,0,0,0,0,0,0,-0.698,-0.6983,-0.701,-0.6994,-0.6996,-0.698,-0.6991,-0.6987,-0.6992,-0.698,-0.6976,-0.6976,-0.697,-0.6972,-0.7005,-0.7035,-0.6975,-0.6976,-0.7093,-0.7096,-0.7099,-0.7157,0,0,0,0,0,0,-0.6979,-0.6983,-0.7002,-0.6995,-0.6997,-0.7039,-0.6992,-0.6988,-0.6995,-0.699,-0.6987,-0.6984,-0.6969,-0.7003,-0.7007,-0.7037,-0.6978,-0.709,-0.7094,-0.7098,-0.7152,-0.7161,-0.7169,0,0,0,0,0,-0.6977,-0.7019,-0.7003,-0.7007,-0.7021,-0.7041,-0.7043,-0.7023,-0.6998,-0.7017,-0.7009,-0.6984,-0.7031,-0.7006,-0.7011,-0.7042,-0.7088,-0.7093,-0.7098,-0.7148,-0.716,-0.7169,0,0,0,0,0,0,-0.7031,-0.7018,-0.7,-0.704,-0.7042,-0.7033,-0.7057,-0.7036,-0.7045,-0.704,-0.7016,-0.7015,-0.7053,-0.705,-0.7023,-0.7091,-0.7055,-0.7061,-0.7092,-0.7102,-0.7111,-0.7112,-0.6979,0,0,0,0,0,-0.7048,-0.7065,-0.7052,-0.7089,-0.709,-0.7073,-0.7082,-0.7066,-0.7067,-0.7068,-0.7062,-0.7065,-0.708,-0.7091,-0.7104,-0.7151,-0.715,-0.7174,-0.7183,-0.719,-0.7196,-0.7221,-0.7232,-0.7116,-0.7116,-0.7116,0,0,-0.7083,-0.7077,-0.7089,-0.71,-0.7099,-0.7118,-0.7074,-0.7096,-0.7111,-0.7072,-0.7102,-0.7098,-0.71,-0.714,-0.7157,-0.7139,-0.7227,-0.7196,-0.7202,-0.7204,-0.7227,-0.7238,-0.7248,-0.7119,-0.7118,-0.7118,0,0,-0.7156,-0.7152,-0.7183,-0.7183,-0.7183,-0.7171,-0.7178,-0.7172,-0.7167,-0.7197,-0.7169,-0.7185,-0.7212,-0.7214,-0.7219,-0.7292,-0.7271,-0.7297,-0.7343,-0.7368,-0.7377,-0.7385,-0.7413,-0.7423,-0.7303,-0.7303,-0.7303,0,-0.7199,-0.7226,-0.7202,-0.7226,-0.7232,-0.7196,-0.7227,-0.7229,-0.7233,-0.7238,-0.7217,-0.7249,-0.7248,-0.7288,-0.7306,-0.7311,-0.7319,-0.7298,-0.7378,-0.7386,-0.7393,-0.7419,-0.7429,-0.7306,-0.7306,-0.7305,-0.7305,0,-0.728,-0.7299,-0.7324,-0.7328,-0.7336,-0.7364,-0.7345,-0.7356,-0.734,-0.733,-0.7362,-0.7358,-0.7371,-0.7379,-0.7363,-0.7417,-0.7406,-0.7382,-0.7345,-0.7408,-0.7432,-0.7441,-0.7311,-0.731,-0.7309,-0.7308,0,0,-0.7389,-0.7379,-0.7388,-0.739,-0.7386,-0.7401,-0.7427,-0.7438,-0.7449,-0.7452,-0.7475,-0.7497,-0.7474,-0.748,-0.7464,-0.7486,-0.7545,-0.7458,-0.7458,-0.7476,-0.7606,-0.7626,-0.7638,-0.753,-0.7532,-0.7533,-0.7607,0,-0.7461,-0.7505,-0.7483,-0.753,-0.7548,-0.7513,-0.7536,-0.7537,-0.7529,-0.7543,-0.7534,-0.7551,-0.7519,-0.7522,-0.7542,-0.7534,-0.7571,-0.7528,-0.7552,-0.7553,-0.7554,-0.765,-0.7671,-0.7741,-0.7616,-0.7617,-0.7618,0,-0.7551,-0.7558,-0.7606,-0.7599,-0.7606,-0.7627,-0.7635,-0.7649,-0.7649,-0.7642,-0.7647,-0.7626,-0.7652,-0.7614,-0.765,-0.7621,-0.7629,-0.7627,-0.7629,-0.7632,-0.7591,-0.7658,-0.7763,-0.7774,-0.7633,-0.7632,-0.7631,0,-0.7628,-0.7649,-0.7681,-0.7683,-0.7675,-0.7691,-0.7688,-0.7686,-0.7694,-0.7702,-0.7707,-0.7717,-0.7724,-0.7732,-0.7715,-0.7689,-0.7754,-0.7715,-0.775,-0.7751,-0.7767,-0.7766,-0.7877,-0.7769,-0.7769,-0.7769,-0.7769,0,-0.7712,-0.7743,-0.7715,-0.7735,-0.7769,-0.7744,-0.7779,-0.7773,-0.7771,-0.779,-0.776,-0.7778,-0.7753,-0.7769,-0.7756,-0.7788,-0.7791,-0.7786,-0.7783,-0.779,-0.7791,-0.7797,-0.7792,-0.7772,-0.7771,-0.777,-0.777,0,-0.7804,-0.7786,-0.7819,-0.7808,-0.7806,-0.7832,-0.7824,-0.7842,-0.7831,-0.7855,-0.7859,-0.7842,-0.786,-0.7842,-0.7859,-0.7849,-0.7894,-0.7882,-0.7894,-0.7891,-0.7928,-0.7926,-0.8047,-0.8063,-0.7944,-0.7945,-0.7946,0,-0.786,-0.7883,-0.7875,-0.7884,-0.7884,-0.79,-0.7908,-0.7884,-0.7893,-0.7895,-0.7913,-0.7927,-0.7938,-0.7967,-0.7957,-0.797,-0.7959,-0.8001,-0.7961,-0.7968,-0.7962,-0.7962,-0.7964,-0.801,-0.8011,-0.8012,-0.8013,0,-0.7961,-0.7951,-0.7962,-0.7971,-0.7981,-0.7987,-0.7991,-0.8001,-0.7976,-0.7988,-0.8005,-0.8013,-0.8029,-0.8045,-0.8054,-0.8052,-0.803,-0.8026,-0.8035,-0.8044,-0.805,-0.8049,-0.7918,-0.8024,-0.8023,-0.8022,-0.8021,-0.8021,-0.8038,-0.8057,-0.8054,-0.8068,-0.8068,-0.8072,-0.8089,-0.808,-0.8093,-0.8104,-0.8089,-0.811,-0.811,-0.8119,-0.812,-0.8137,-0.812,-0.8132,-0.8136,-0.814,-0.8146,-0.8046,-0.8138,-0.8138,-0.8138,-0.8137,-0.8137,0,-0.8139,-0.8135,-0.8148,-0.8154,-0.8165,-0.8141,-0.8144,-0.8155,-0.8174,-0.8175,-0.8185,-0.8205,-0.8219,-0.821,-0.8222,-0.8238,-0.8228,-0.8242,-0.8242,-0.8242,-0.816,-0.8152,-0.825,-0.825,-0.825,-0.825,-0.825,-0.825,-0.8193,-0.8224,-0.8214,-0.8245,-0.8241,-0.8261,-0.8265,-0.8269,-0.8269,-0.8292,-0.8304,-0.8297,-0.8294,-0.8306,-0.8318,-0.8315,-0.8322,-0.834,-0.8334,-0.8258,-0.8247,-0.8237,-0.8229,-0.8341,-0.8342,-0.8414,-0.8415,-0.8415]},{"header":{"parameterUnit":"m.s-1","parameterCategory":1,"la1":30.2991,"la2":30.254,"lo1":-89.0895,"lo2":-89.0444,"dy":0.0017,"dx":0.0017,"nx":28,"ny":28,"refTime":"2024-10-09T09:00:00:Z","depth":0,"parameterNumber":3,"parameterNumberName":"V-component_of_WINDS"},"data":[0,0,0,0,0,0,0,0,0,0,0,0,0,0,0,0,0,0,0,0,0,0,0,0,0,0,0,0,0,0,0,0,0,0,0,0,0,0,0,0,0,0,0,0,0,0,0,0,0,0,0,0,0,0,0,0,0,0,-4.2525,-4.2526,0,-4.258,-4.258,-4.2581,-4.2509,-4.2507,-4.2504,-4.2502,-4.2555,-4.2558,-4.2562,0,0,0,0,0,0,0,0,0,0,0,0,0,-4.2356,-4.236,-4.2525,-4.2526,-4.2526,-4.258,-4.258,-4.2581,-4.251,-4.2507,-4.2504,-4.2501,-4.2553,-4.2558,-4.2562,0,0,0,0,0,0,0,0,0,0,0,0,0,-4.2422,-4.2361,-4.2525,-4.2497,-4.2495,-4.2579,-4.258,-4.2581,-4.251,-4.2507,-4.2503,-4.2499,-4.2552,-4.2557,-4.2563,-4.2676,0,0,-4.2581,-4.2583,0,0,0,0,0,0,0,0,-4.2418,-4.2428,-4.2501,-4.2499,-4.2497,-4.2534,-4.254,-4.2613,-4.2511,-4.2505,-4.2502,-4.2497,-4.2551,-4.2556,-4.2575,-4.2678,-4.268,-4.2581,-4.2584,-4.2587,-4.2589,0,0,0,0,0,0,0,-4.2414,-4.2425,-4.2546,-4.2502,-4.25,-4.2481,-4.2486,-4.2553,-4.2549,-4.2505,-4.25,-4.2508,-4.2549,-4.2569,-4.2576,-4.2681,-4.2581,-4.2586,-4.2589,-4.2592,-4.288,-4.2884,0,0,0,0,0,0,-4.2413,-4.2422,-4.2545,-4.2548,-4.2448,-4.2487,-4.2493,-4.2526,-4.2548,-4.2547,-4.2511,-4.2504,-4.2562,-4.2569,-4.2577,-4.2711,-4.2587,-4.2592,-4.2596,-4.2876,-4.2881,-4.2886,0,0,0,0,0,0,-4.241,-4.2425,-4.2542,-4.2484,-4.2497,-4.2495,-4.2532,-4.2529,-4.255,-4.2552,-4.255,-4.2533,-4.2559,-4.2569,-4.2652,-4.2712,-4.2595,-4.26,-4.2871,-4.2878,-4.2884,-4.298,0,0,0,0,0,0,-4.2405,-4.2424,-4.2467,-4.2485,-4.2501,-4.2618,-4.2536,-4.2533,-4.256,-4.2552,-4.2572,-4.2572,-4.2557,-4.2644,-4.2658,-4.2718,-4.2604,-4.2866,-4.2874,-4.2882,-4.2972,-4.2989,-4.3004,0,0,0,0,0,-4.2399,-4.2491,-4.247,-4.2485,-4.2555,-4.2621,-4.263,-4.2611,-4.2565,-4.2608,-4.261,-4.2571,-4.2703,-4.2653,-4.2668,-4.2731,-4.2862,-4.2872,-4.2881,-4.2964,-4.2986,-4.3004,0,0,0,0,0,0,-4.2479,-4.2493,-4.2469,-4.257,-4.2596,-4.2609,-4.2663,-4.2634,-4.2672,-4.2663,-4.2636,-4.2642,-4.2731,-4.2739,-4.2683,-4.2841,-4.2775,-4.2788,-4.2833,-4.2853,-4.2869,-4.2866,-4.2609,0,0,0,0,0,-4.2509,-4.2562,-4.2571,-4.2659,-4.2673,-4.2666,-4.2694,-4.2678,-4.2702,-4.2712,-4.272,-4.2744,-4.2791,-4.2822,-4.2865,-4.2972,-4.2976,-4.3023,-4.3039,-4.3052,-4.3064,-4.3122,-4.3143,-4.2917,-4.2917,-4.2917,0,0,-4.257,-4.2584,-4.2619,-4.2676,-4.2693,-4.2749,-4.2676,-4.2737,-4.2778,-4.2721,-4.2801,-4.2807,-4.2832,-4.2928,-4.2971,-4.2938,-4.3127,-4.3064,-4.3075,-4.3079,-4.3134,-4.3155,-4.3174,-4.2924,-4.2923,-4.2922,0,0,-4.271,-4.2726,-4.2802,-4.2821,-4.2849,-4.2844,-4.2862,-4.2881,-4.2883,-4.2963,-4.2922,-4.2969,-4.305,-4.3071,-4.3091,-4.324,-4.3206,-4.3255,-4.3339,-4.3396,-4.3414,-4.3429,-4.3483,-4.3503,-4.3266,-4.3266,-4.3267,0,-4.2782,-4.2865,-4.2844,-4.2909,-4.2935,-4.2887,-4.2964,-4.2983,-4.3023,-4.3042,-4.3004,-4.3106,-4.312,-4.322,-4.3256,-4.3275,-4.3294,-4.3253,-4.3413,-4.3429,-4.3443,-4.3494,-4.3514,-4.3272,-4.3272,-4.3271,-4.327,0,-4.2953,-4.3011,-4.3068,-4.311,-4.3143,-4.3213,-4.3202,-4.3237,-4.3218,-4.3217,-4.3298,-4.3313,-4.3359,-4.3381,-4.3362,-4.3479,-4.3458,-4.3417,-4.335,-4.3471,-4.3518,-4.3537,-4.3281,-4.3278,-4.3277,-4.3275,0,0,-4.3145,-4.3175,-4.3196,-4.3215,-4.3243,-4.3287,-4.3355,-4.3401,-4.3432,-4.3461,-4.3517,-4.3588,-4.355,-4.3574,-4.3557,-4.3607,-4.3725,-4.356,-4.356,-4.3591,-4.3855,-4.3887,-4.391,-4.3702,-4.3706,-4.3708,-4.3854,0,-4.3285,-4.3405,-4.3388,-4.3503,-4.3556,-4.3512,-4.3571,-4.3594,-4.3595,-4.364,-4.364,-4.3691,-4.3637,-4.3651,-4.3699,-4.37,-4.3778,-4.3689,-4.3754,-4.3757,-4.3751,-4.3934,-4.3968,-4.4104,-4.3872,-4.3875,-4.3877,0,-4.3466,-4.3504,-4.3624,-4.3644,-4.3666,-4.372,-4.3761,-4.3805,-4.383,-4.3827,-4.3854,-4.3828,-4.3896,-4.3827,-4.392,-4.386,-4.3885,-4.389,-4.3895,-4.3901,-4.3825,-4.3946,-4.4147,-4.4168,-4.3906,-4.3904,-4.3902,0,-4.3595,-4.3676,-4.3759,-4.3776,-4.3801,-4.384,-4.3852,-4.3874,-4.3903,-4.3938,-4.3957,-4.3999,-4.4023,-4.4056,-4.4042,-4.3994,-4.4138,-4.4068,-4.4137,-4.4138,-4.417,-4.4169,-4.4379,-4.4185,-4.4185,-4.4185,-4.4184,0,-4.3755,-4.3831,-4.3817,-4.3868,-4.3952,-4.3931,-4.4014,-4.402,-4.404,-4.4091,-4.4054,-4.4103,-4.4081,-4.4128,-4.4117,-4.4196,-4.4206,-4.4206,-4.4202,-4.421,-4.421,-4.4226,-4.4217,-4.419,-4.4189,-4.4188,-4.4187,0,-4.3914,-4.3908,-4.3995,-4.4013,-4.4019,-4.408,-4.4094,-4.4142,-4.4139,-4.4205,-4.4219,-4.4215,-4.4269,-4.4258,-4.4316,-4.4309,-4.4408,-4.4392,-4.44,-4.4397,-4.4468,-4.4462,-4.4696,-4.4726,-4.4513,-4.4515,-4.4516,0,-4.4017,-4.4074,-4.4098,-4.4131,-4.4146,-4.4198,-4.4228,-4.421,-4.4243,-4.4276,-4.432,-4.437,-4.4409,-4.4496,-4.4499,-4.4543,-4.4528,-4.4608,-4.4535,-4.4541,-4.4531,-4.4528,-4.4534,-4.4622,-4.4625,-4.4627,-4.4628,0,-4.42,-4.4195,-4.424,-4.4285,-4.4323,-4.4356,-4.4387,-4.4415,-4.4399,-4.4438,-4.4493,-4.4523,-4.4583,-4.4634,-4.4675,-4.4686,-4.4656,-4.4651,-4.467,-4.4679,-4.4682,-4.4682,-4.4441,-4.4646,-4.4644,-4.4643,-4.4642,-4.4641,-4.4335,-4.4384,-4.441,-4.4462,-4.4483,-4.4512,-4.4558,-4.4563,-4.4609,-4.4657,-4.4643,-4.4706,-4.4729,-4.4782,-4.4798,-4.4846,-4.4817,-4.4843,-4.485,-4.4858,-4.4867,-4.4674,-4.4854,-4.4853,-4.4853,-4.4852,-4.4852,0,-4.4518,-4.4532,-4.458,-4.4625,-4.4666,-4.4634,-4.4666,-4.4702,-4.4758,-4.4783,-4.4823,-4.4886,-4.4935,-4.4942,-4.4988,-4.5025,-4.5012,-4.5038,-4.5036,-4.5039,-4.489,-4.487,-4.5048,-4.5048,-4.5048,-4.5048,-4.5048,-4.5048,-4.4618,-4.47,-4.4698,-4.479,-4.4803,-4.4866,-4.4887,-4.4914,-4.4934,-4.5007,-4.5048,-4.5053,-4.507,-4.5118,-4.5161,-4.5161,-4.5181,-4.5212,-4.5208,-4.5069,-4.5049,-4.5031,-4.5012,-4.5217,-4.5217,-4.5352,-4.5354,-4.5355]}]]